Location: Gleizolles
(44.4833°N, 6.7667°E)
Time: 00:28:01
(UTC+00:00)

S-56A Canister/Altair - Pass Details

Date: 01 July 2024
Orbit: 638 x 2488 km, 38.9° (Epoch: 24 July)

Event Time Altitude Azimuth Distance (km) Brightness Sun altitude
Rises 22:28:33 0° 277° (W) 4,282 11.7 -20.7°
Reaches altitude 10° 22:31:14 10° 270° (W) 3,537 11.1 -20.8°
Maximum altitude 22:39:57 43° 203° (SSW) 2,422 9.6 -21.2°
Enters shadow 22:45:45 28° 155° (SSE) 3,313 10.1 -21.5°
Drops below altitude 10° 22:52:06 10° 138° (SE) 4,879 - -21.7°
Sets 22:56:33 0° 133° (SE) 6,034 - -21.9°
